Time,TemperatureF,DewpointF,PressureIn,WindDirection,WindDirectionDegrees,WindSpeedMPH,WindSpeedGustMPH,Humidity,HourlyPrecipIn,Conditions,Clouds,dailyrainin,SoftwareType,DateUTC
2013-01-30 00:02:00,32.8,30.5,30.49,SE,136,1.0,1.0,91,0.00,,,0.00,LWC V1.12 B30,2013-01-29 23:02:00,
2013-01-30 00:07:00,32.7,30.4,30.49,SE,136,0.0,0.0,91,0.00,,,0.00,LWC V1.12 B30,2013-01-29 23:07:00,
2013-01-30 00:12:00,32.6,30.3,30.49,SE,136,0.0,1.0,91,0.00,,,0.00,LWC V1.12 B30,2013-01-29 23:12:00,
2013-01-30 00:17:00,32.5,30.2,30.49,SE,136,0.0,1.0,91,0.00,,,0.00,LWC V1.12 B30,2013-01-29 23:17:00,
2013-01-30 00:22:00,32.5,30.2,30.49,SE,136,1.0,1.0,91,0.00,,,0.00,LWC V1.12 B30,2013-01-29 23:22:00,
2013-01-30 00:27:00,32.5,30.2,30.49,SE,136,0.0,1.0,91,0.00,,,0.00,LWC V1.12 B30,2013-01-29 23:27:00,
2013-01-30 00:32:00,32.4,30.1,30.49,SE,136,0.0,0.0,91,0.00,,,0.00,LWC V1.12 B30,2013-01-29 23:32:00,
2013-01-30 00:37:00,32.4,30.1,30.49,SE,136,0.0,0.0,91,0.00,,,0.00,LWC V1.12 B30,2013-01-29 23:37:00,
2013-01-30 00:42:00,32.3,30.0,30.49,SE,136,0.0,1.0,91,0.00,,,0.00,LWC V1.12 B30,2013-01-29 23:42:00,
2013-01-30 00:47:00,32.3,30.2,30.49,SE,136,0.0,1.0,92,0.00,,,0.00,LWC V1.12 B30,2013-01-29 23:47:00,
2013-01-30 00:52:00,32.4,30.3,30.50,SE,136,0.0,1.0,92,0.00,,,0.00,LWC V1.12 B30,2013-01-29 23:52:00,
2013-01-30 00:57:00,32.6,30.5,30.49,SE,136,0.0,1.0,92,0.00,,,0.00,LWC V1.12 B30,2013-01-29 23:57:00,
2013-01-30 01:02:00,32.8,30.7,30.49,SE,136,0.0,1.0,92,0.00,,,0.00,LWC V1.12 B30,2013-01-30 00:02:00,
2013-01-30 01:07:00,33.1,31.0,30.49,SE,136,1.0,1.0,92,0.00,,,0.00,LWC V1.12 B30,2013-01-30 00:07:00,
2013-01-30 01:12:00,33.4,31.3,30.49,SE,136,0.0,1.0,92,0.00,,,0.00,LWC V1.12 B30,2013-01-30 00:12:00,
2013-01-30 01:17:00,33.5,31.4,30.49,SE,136,0.0,0.0,92,0.00,,,0.00,LWC V1.12 B30,2013-01-30 00:17:00,
2013-01-30 01:22:00,33.7,31.9,30.49,SE,136,0.0,1.0,93,0.00,,,0.00,LWC V1.12 B30,2013-01-30 00:22:00,
2013-01-30 01:27:00,33.9,32.1,30.49,SE,136,1.0,2.0,93,0.00,,,0.00,LWC V1.12 B30,2013-01-30 00:27:00,
2013-01-30 01:32:00,34.3,32.5,30.49,SE,136,0.0,1.0,93,0.00,,,0.00,LWC V1.12 B30,2013-01-30 00:32:00,
2013-01-30 01:37:00,34.3,32.5,30.49,SE,136,0.0,0.0,93,0.00,,,0.00,LWC V1.12 B30,2013-01-30 00:37:00,
2013-01-30 01:42:00,35.4,33.8,30.49,SE,130,1.0,2.0,94,0.00,,,0.00,LWC V1.12 B30,2013-01-30 00:42:00,
2013-01-30 01:47:00,37.7,36.4,30.49,SE,131,1.0,1.0,95,0.00,,,0.00,LWC V1.12 B30,2013-01-30 00:47:00,
2013-01-30 01:52:00,39.2,37.9,30.49,SE,131,1.0,2.0,95,0.00,,,0.00,LWC V1.12 B30,2013-01-30 00:52:00,
2013-01-30 01:57:00,40.0,38.7,30.49,SE,131,1.0,1.0,95,0.00,,,0.00,LWC V1.12 B30,2013-01-30 00:57:00,
2013-01-30 02:02:00,39.9,38.0,30.49,SE,130,0.0,1.0,93,0.00,,,0.00,LWC V1.12 B30,2013-01-30 01:02:00,
2013-01-30 02:07:00,39.5,37.9,30.49,SE,130,1.0,1.0,94,0.00,,,0.00,LWC V1.12 B30,2013-01-30 01:07:00,
2013-01-30 02:12:00,39.0,37.2,30.49,SE,131,0.0,0.0,93,0.00,,,0.00,LWC V1.12 B30,2013-01-30 01:12:00,
2013-01-30 02:17:00,38.5,36.7,30.49,SE,131,0.0,0.0,93,0.00,,,0.00,LWC V1.12 B30,2013-01-30 01:17:00,
2013-01-30 02:22:00,37.9,36.1,30.49,SE,131,0.0,0.0,93,0.00,,,0.00,LWC V1.12 B30,2013-01-30 01:22:00,
2013-01-30 02:27:00,37.5,35.7,30.48,SE,131,0.0,0.0,93,0.00,,,0.00,LWC V1.12 B30,2013-01-30 01:27:00,
2013-01-30 02:32:00,37.0,35.2,30.48,SE,130,0.0,1.0,93,0.00,,,0.00,LWC V1.12 B30,2013-01-30 01:32:00,
2013-01-30 02:37:00,36.6,34.8,30.48,SE,130,0.0,0.0,93,0.00,,,0.00,LWC V1.12 B30,2013-01-30 01:37:00,
2013-01-30 02:42:00,36.3,34.5,30.49,SE,131,0.0,0.0,93,0.00,,,0.00,LWC V1.12 B30,2013-01-30 01:42:00,
2013-01-30 02:47:00,36.0,34.2,30.49,SE,131,0.0,0.0,93,0.00,,,0.00,LWC V1.12 B30,2013-01-30 01:47:00,
2013-01-30 02:52:00,35.9,34.1,30.48,SE,131,2.0,3.0,93,0.00,,,0.00,LWC V1.12 B30,2013-01-30 01:52:00,
2013-01-30 02:57:00,35.8,34.0,30.48,SE,131,0.0,2.0,93,0.00,,,0.00,LWC V1.12 B30,2013-01-30 01:57:00,
2013-01-30 03:02:00,35.6,33.8,30.48,SE,130,1.0,2.0,93,0.00,,,0.00,LWC V1.12 B30,2013-01-30 02:02:00,
2013-01-30 03:07:00,35.5,33.7,30.48,SE,130,0.0,1.0,93,0.00,,,0.00,LWC V1.12 B30,2013-01-30 02:07:00,
2013-01-30 03:12:00,36.1,34.5,30.47,ESE,123,2.0,4.0,94,0.00,,,0.00,LWC V1.12 B30,2013-01-30 02:12:00,
2013-01-30 03:17:00,38.2,36.9,30.47,ESE,122,1.0,2.0,95,0.00,,,0.00,LWC V1.12 B30,2013-01-30 02:17:00,
2013-01-30 03:22:00,39.7,38.4,30.47,ESE,123,2.0,3.0,95,0.00,,,0.00,LWC V1.12 B30,2013-01-30 02:22:00,
2013-01-30 03:27:00,40.4,39.1,30.47,ESE,122,1.0,2.0,95,0.00,,,0.00,LWC V1.12 B30,2013-01-30 02:27:00,
2013-01-30 03:32:00,41.2,39.9,30.47,ESE,119,1.0,2.0,95,0.00,,,0.00,LWC V1.12 B30,2013-01-30 02:32:00,
2013-01-30 03:37:00,40.4,38.5,30.47,ESE,115,3.0,5.0,93,0.00,,,0.00,LWC V1.12 B30,2013-01-30 02:37:00,
2013-01-30 03:42:00,40.0,38.4,30.48,East,98,2.0,3.0,94,0.00,,,0.00,LWC V1.12 B30,2013-01-30 02:42:00,
2013-01-30 03:47:00,40.3,38.7,30.48,East,97,1.0,2.0,94,0.00,,,0.00,LWC V1.12 B30,2013-01-30 02:47:00,
2013-01-30 03:52:00,40.7,39.4,30.48,East,96,1.0,2.0,95,0.00,,,0.00,LWC V1.12 B30,2013-01-30 02:52:00,
2013-01-30 03:57:00,40.7,39.1,30.47,ESE,119,3.0,4.0,94,0.00,,,0.00,LWC V1.12 B30,2013-01-30 02:57:00,
2013-01-30 04:01:00,39.7,38.1,30.47,ESE,117,1.0,2.0,94,0.00,,,0.00,LWC V1.12 B30,2013-01-30 03:01:00,
2013-01-30 04:06:00,40.1,38.8,30.47,ESE,114,2.0,3.0,95,0.00,,,0.00,LWC V1.12 B30,2013-01-30 03:06:00,
2013-01-30 04:11:00,40.0,38.4,30.48,ESE,115,2.0,2.0,94,0.00,,,0.00,LWC V1.12 B30,2013-01-30 03:11:00,
2013-01-30 04:16:00,40.4,39.1,30.48,ESE,115,0.0,1.0,95,0.00,,,0.00,LWC V1.12 B30,2013-01-30 03:16:00,
2013-01-30 04:21:00,40.4,38.8,30.48,ESE,115,0.0,0.0,94,0.00,,,0.00,LWC V1.12 B30,2013-01-30 03:21:00,
2013-01-30 04:26:00,39.6,37.7,30.48,ESE,116,0.0,0.0,93,0.00,,,0.00,LWC V1.12 B30,2013-01-30 03:26:00,
2013-01-30 04:31:00,39.0,37.2,30.48,ESE,115,1.0,2.0,93,0.00,,,0.00,LWC V1.12 B30,2013-01-30 03:31:00,
2013-01-30 04:36:00,39.0,37.4,30.48,ESE,119,2.0,3.0,94,0.00,,,0.00,LWC V1.12 B30,2013-01-30 03:36:00,
2013-01-30 04:41:00,39.0,37.4,30.48,ESE,119,1.0,1.0,94,0.00,,,0.00,LWC V1.12 B30,2013-01-30 03:41:00,
2013-01-30 04:46:00,39.4,37.8,30.48,ESE,115,2.0,4.0,94,0.00,,,0.00,LWC V1.12 B30,2013-01-30 03:46:00,
2013-01-30 04:51:00,39.6,38.0,30.48,ESE,119,2.0,3.0,94,0.00,,,0.00,LWC V1.12 B30,2013-01-30 03:51:00,
2013-01-30 04:56:00,39.4,37.8,30.48,ESE,121,0.0,1.0,94,0.00,,,0.00,LWC V1.12 B30,2013-01-30 03:56:00,
2013-01-30 05:01:00,39.1,37.5,30.48,ESE,121,3.0,3.0,94,0.00,,,0.00,LWC V1.12 B30,2013-01-30 04:01:00,
2013-01-30 05:06:00,39.0,37.4,30.48,ESE,122,3.0,3.0,94,0.00,,,0.00,LWC V1.12 B30,2013-01-30 04:06:00,
2013-01-30 05:11:00,39.2,37.6,30.48,ESE,120,1.0,2.0,94,0.00,,,0.00,LWC V1.12 B30,2013-01-30 04:11:00,
2013-01-30 05:16:00,38.9,37.3,30.48,ESE,121,1.0,2.0,94,0.00,,,0.00,LWC V1.12 B30,2013-01-30 04:16:00,
2013-01-30 05:21:00,38.4,36.6,30.48,ESE,122,3.0,4.0,93,0.00,,,0.00,LWC V1.12 B30,2013-01-30 04:21:00,
2013-01-30 05:26:00,38.6,37.0,30.47,ESE,113,4.0,5.0,94,0.00,,,0.00,LWC V1.12 B30,2013-01-30 04:26:00,
2013-01-30 05:31:00,39.2,37.6,30.48,East,101,3.0,4.0,94,0.00,,,0.00,LWC V1.12 B30,2013-01-30 04:31:00,
2013-01-30 05:36:00,40.1,38.8,30.48,ESE,104,2.0,3.0,95,0.00,,,0.00,LWC V1.12 B30,2013-01-30 04:36:00,
2013-01-30 05:41:00,40.7,39.4,30.47,ESE,105,2.0,3.0,95,0.00,,,0.00,LWC V1.12 B30,2013-01-30 04:41:00,
2013-01-30 05:46:00,41.0,39.4,30.48,East,100,2.0,4.0,94,0.00,,,0.00,LWC V1.12 B30,2013-01-30 04:46:00,
2013-01-30 05:51:00,41.3,39.7,30.48,East,101,2.0,3.0,94,0.00,,,0.00,LWC V1.12 B30,2013-01-30 04:51:00,
2013-01-30 05:56:00,41.3,39.7,30.48,ESE,105,2.0,3.0,94,0.00,,,0.00,LWC V1.12 B30,2013-01-30 04:56:00,
2013-01-30 06:00:00,41.0,39.1,30.48,ESE,107,1.0,3.0,93,0.00,,,0.00,LWC V1.12 B30,2013-01-30 05:00:00,
2013-01-30 06:01:00,40.9,39.0,30.48,ESE,107,2.0,3.0,93,0.00,,,0.00,LWC V1.12 B30,2013-01-30 05:01:00,
2013-01-30 06:03:00,40.8,39.2,30.48,ESE,107,3.0,4.0,94,0.00,,,0.00,LWC V1.12 B30,2013-01-30 05:03:00,
2013-01-30 06:08:00,40.5,38.6,30.47,ESE,114,4.0,5.0,93,0.00,,,0.00,LWC V1.12 B30,2013-01-30 05:08:00,
2013-01-30 06:13:00,40.0,38.1,30.48,ESE,107,4.0,6.0,93,0.00,,,0.00,LWC V1.12 B30,2013-01-30 05:13:00,
2013-01-30 06:18:00,39.9,38.0,30.48,ESE,111,3.0,4.0,93,0.00,,,0.01,LWC V1.12 B30,2013-01-30 05:18:00,
2013-01-30 06:23:00,40.1,38.2,30.47,ESE,115,3.0,4.0,93,0.00,,,0.01,LWC V1.12 B30,2013-01-30 05:23:00,
2013-01-30 06:28:00,39.6,37.7,30.47,ESE,123,3.0,4.0,93,0.00,,,0.01,LWC V1.12 B30,2013-01-30 05:28:00,
2013-01-30 06:33:00,38.3,35.9,30.47,SE,131,4.0,5.0,91,0.00,,,0.01,LWC V1.12 B30,2013-01-30 05:33:00,
2013-01-30 06:38:00,38.2,36.4,30.47,ESE,116,3.0,4.0,93,0.00,,,0.01,LWC V1.12 B30,2013-01-30 05:38:00,
2013-01-30 06:43:00,39.2,37.6,30.48,ESE,113,3.0,4.0,94,0.00,,,0.01,LWC V1.12 B30,2013-01-30 05:43:00,
2013-01-30 06:48:00,39.6,38.0,30.48,ESE,112,0.0,1.0,94,0.00,,,0.01,LWC V1.12 B30,2013-01-30 05:48:00,
2013-01-30 06:53:00,39.4,37.5,30.48,ESE,113,1.0,2.0,93,0.00,,,0.01,LWC V1.12 B30,2013-01-30 05:53:00,
2013-01-30 06:58:00,38.5,36.4,30.48,SE,132,4.0,5.0,92,0.00,,,0.01,LWC V1.12 B30,2013-01-30 05:58:00,
2013-01-30 07:03:00,37.8,35.7,30.48,SE,132,0.0,0.0,92,0.00,,,0.01,LWC V1.12 B30,2013-01-30 06:03:00,
2013-01-30 07:08:00,37.4,35.3,30.48,SE,132,2.0,4.0,92,0.00,,,0.01,LWC V1.12 B30,2013-01-30 06:08:00,
2013-01-30 07:13:00,37.0,34.9,30.48,SE,126,1.0,3.0,92,0.00,,,0.01,LWC V1.12 B30,2013-01-30 06:13:00,
2013-01-30 07:18:00,37.2,35.4,30.48,ESE,104,4.0,4.0,93,0.00,,,0.01,LWC V1.12 B30,2013-01-30 06:18:00,
2013-01-30 07:23:00,38.1,36.5,30.48,East,98,2.0,3.0,94,0.00,,,0.01,LWC V1.12 B30,2013-01-30 06:23:00,